BUCKY67 KTEB-KHPN

Flight info

Callsign BUCKY67
Flight time 0h 18m
Altitude 3000
Route BREZY V39 CMK
Aircraft C172/L-V/N

Departure

Time 2026-04-29 03:11
Airport Teterboro Airport (KTEB)

Arrival

Time 2026-04-29 03:30
Airport Westchester County Airport (KHPN)
Time Latitude Longitude Altitude Speed Heading
2026-04-29 02:46 40.85529 -74.06138 6 ft 0 kts 48°
2026-04-29 03:07 40.85535 -74.06128 9 ft 0 kts 49°
2026-04-29 03:08 40.85545 -74.06115 10 ft 0 kts 63°
2026-04-29 03:08 40.85546 -74.06114 10 ft 1 kts 63°
2026-04-29 03:08 40.85572 -74.06064 11 ft 12 kts 27°
2026-04-29 03:09 40.85648 -74.06053 11 ft 3 kts 358°
2026-04-29 03:09 40.85694 -74.06050 10 ft 9 kts
2026-04-29 03:09 40.85773 -74.06027 9 ft 13 kts 48°
2026-04-29 03:09 40.85782 -74.06008 9 ft 0 kts 81°
2026-04-29 03:10 40.85766 -74.05916 12 ft 20 kts 135°
2026-04-29 03:10 40.85553 -74.05912 13 ft 57 kts 182°
2026-04-29 03:10 40.85017 -74.05945 58 ft 88 kts 184°
2026-04-29 03:10 40.84383 -74.05988 298 ft 90 kts 179°
2026-04-29 03:11 40.83740 -74.05981 500 ft 95 kts 181°
2026-04-29 03:11 40.83103 -74.06143 720 ft 97 kts 215°
2026-04-29 03:11 40.82774 -74.06896 962 ft 97 kts 261°
2026-04-29 03:11 40.82764 -74.07799 1207 ft 99 kts 265°
2026-04-29 03:12 40.82687 -74.08693 1503 ft 97 kts 264°
2026-04-29 03:12 40.82592 -74.09603 1735 ft 102 kts 258°
2026-04-29 03:12 40.82457 -74.10551 1871 ft 116 kts 259°
2026-04-29 03:12 40.82292 -74.11635 2073 ft 115 kts 258°
2026-04-29 03:13 40.82190 -74.12646 2396 ft 109 kts 262°
2026-04-29 03:13 40.82237 -74.13619 2669 ft 106 kts 281°
2026-04-29 03:13 40.82326 -74.14579 2943 ft 107 kts 271°
2026-04-29 03:13 40.82358 -74.15669 2924 ft 128 kts 277°
2026-04-29 03:14 40.82821 -74.16668 2949 ft 134 kts 326°
2026-04-29 03:14 40.83732 -74.16917 2906 ft 142 kts
2026-04-29 03:14 40.84696 -74.16646 2908 ft 143 kts 11°
2026-04-29 03:14 40.85682 -74.16449 2890 ft 143 kts
2026-04-29 03:15 40.86677 -74.16390 2887 ft 143 kts
2026-04-29 03:15 40.87670 -74.16320 2887 ft 143 kts
2026-04-29 03:15 40.88659 -74.16228 2887 ft 143 kts
2026-04-29 03:15 40.89650 -74.16128 2887 ft 143 kts
2026-04-29 03:16 40.90640 -74.16028 2887 ft 143 kts
2026-04-29 03:16 40.91628 -74.15929 2886 ft 142 kts
2026-04-29 03:16 40.92601 -74.15832 2886 ft 142 kts
2026-04-29 03:16 40.93594 -74.15732 2886 ft 141 kts
2026-04-29 03:17 40.94562 -74.15634 2886 ft 141 kts
2026-04-29 03:17 40.95542 -74.15535 2886 ft 141 kts
2026-04-29 03:17 40.96533 -74.15435 2886 ft 141 kts
2026-04-29 03:17 40.97500 -74.15337 2886 ft 141 kts
2026-04-29 03:18 40.98477 -74.15239 2886 ft 141 kts
2026-04-29 03:18 40.99456 -74.15140 2886 ft 141 kts
2026-04-29 03:18 41.00435 -74.15042 2886 ft 141 kts
2026-04-29 03:18 41.01414 -74.14943 2886 ft 141 kts
2026-04-29 03:19 41.02394 -74.14844 2886 ft 141 kts
2026-04-29 03:19 41.03372 -74.14746 2886 ft 141 kts
2026-04-29 03:19 41.04352 -74.14648 2886 ft 141 kts
2026-04-29 03:19 41.05331 -74.14531 2897 ft 140 kts
2026-04-29 03:20 41.06229 -74.14136 2956 ft 136 kts 48°
2026-04-29 03:20 41.06541 -74.13016 3075 ft 132 kts 75°
2026-04-29 03:20 41.06755 -74.11766 2809 ft 151 kts 81°
2026-04-29 03:20 41.06859 -74.10523 3104 ft 120 kts 89°
2026-04-29 03:21 41.07071 -74.09393 2817 ft 142 kts 73°
2026-04-29 03:21 41.07115 -74.08164 2912 ft 127 kts 94°
2026-04-29 03:21 41.07130 -74.06991 2882 ft 128 kts 81°
2026-04-29 03:21 41.07366 -74.05854 2837 ft 129 kts 74°
2026-04-29 03:22 41.07514 -74.04707 2883 ft 124 kts 86°
2026-04-29 03:22 41.07588 -74.03566 2877 ft 124 kts 86°
2026-04-29 03:22 41.07660 -74.02424 2876 ft 124 kts 86°
2026-04-29 03:22 41.07732 -74.01291 2876 ft 124 kts 86°
2026-04-29 03:23 41.07777 -74.00535 2873 ft 124 kts 89°
2026-04-29 03:23 41.07607 -73.99428 2856 ft 122 kts 107°
2026-04-29 03:23 41.07578 -73.98324 2885 ft 120 kts 87°
2026-04-29 03:23 41.07644 -73.97212 2886 ft 122 kts 86°
2026-04-29 03:24 41.07735 -73.95713 2895 ft 124 kts 86°
2026-04-29 03:24 41.07783 -73.94937 2883 ft 125 kts 86°
2026-04-29 03:24 41.07875 -73.93791 2885 ft 126 kts 84°
2026-04-29 03:24 41.08240 -73.92747 2815 ft 132 kts 48°
2026-04-29 03:25 41.08579 -73.91679 2888 ft 123 kts 83°
2026-04-29 03:25 41.08665 -73.90556 2881 ft 125 kts 86°
2026-04-29 03:25 41.08743 -73.89393 2886 ft 128 kts 86°
2026-04-29 03:25 41.08820 -73.88199 2889 ft 131 kts 86°
2026-04-29 03:26 41.08898 -73.86988 2891 ft 133 kts 86°
2026-04-29 03:26 41.08975 -73.85766 2890 ft 134 kts 86°
2026-04-29 03:26 41.09002 -73.84528 2884 ft 134 kts 95°
2026-04-29 03:26 41.08883 -73.83291 2750 ft 137 kts 102°
2026-04-29 03:27 41.08699 -73.82049 2508 ft 135 kts 101°
2026-04-29 03:27 41.08491 -73.80868 2200 ft 127 kts 107°
2026-04-29 03:27 41.08267 -73.79820 1982 ft 109 kts 109°
2026-04-29 03:27 41.08055 -73.78932 1778 ft 98 kts 112°
2026-04-29 03:28 41.07851 -73.78084 1668 ft 95 kts 109°
2026-04-29 03:28 41.07671 -73.77221 1605 ft 98 kts 106°
2026-04-29 03:28 41.07504 -73.76324 1556 ft 103 kts 104°
2026-04-29 03:28 41.07340 -73.75378 1416 ft 109 kts 105°
2026-04-29 03:29 41.07181 -73.74369 1159 ft 115 kts 103°
2026-04-29 03:29 41.07013 -73.73345 926 ft 111 kts 102°
2026-04-29 03:29 41.06846 -73.72370 695 ft 108 kts 104°
2026-04-29 03:29 41.06680 -73.71418 415 ft 102 kts 104°
2026-04-29 03:30 41.06567 -73.70736 399 ft 38 kts 102°
2026-04-29 03:30 41.06544 -73.70605 396 ft 23 kts 99°
2026-04-29 03:30 41.06510 -73.70390 395 ft 23 kts 81°
2026-04-29 03:30 41.06555 -73.70345 396 ft 9 kts 321°
2026-04-29 03:31 41.06611 -73.70398 397 ft 0 kts 342°
2026-04-29 03:32 41.06659 -73.70427 399 ft 14 kts 331°
2026-04-29 03:32 41.06686 -73.70502 401 ft 0 kts 295°
2026-04-29 03:32 41.06770 -73.70519 403 ft 28 kts 322°
2026-04-29 03:32 41.06927 -73.70633 407 ft 23 kts 324°
2026-04-29 03:33 41.07096 -73.70759 413 ft 38 kts 327°
2026-04-29 03:33 41.07287 -73.70828 418 ft 8 kts 27°
2026-04-29 03:33 41.07289 -73.70826 419 ft 0 kts 27°